Regional Weather Roundup
Issued by NWS

Home | Current Version | Previous Version | Graphics & Text | Print | Product List | Glossary Off
Versions: 1 2 3 4 5 6 7 8 9 10 11 12 13 14 15 16 17 18 19 20 21 22 23 24 25 26 27 28 29 30 31 32 33 34 35 36 37 38 39 40 41 42 43 44 45 46 47 48 49 50

370
ASUS43 KDTX 232201
RWRMI
MICHIGAN HOURLY REGIONAL WEATHER ROUNDUP
NATIONAL WEATHER SERVICE DETROIT/PONTIAC MI
500 PM EST MON JAN 23 2017

NOTE: "FAIR" INDICATES FEW OR NO CLOUDS BELOW 12,000 FEET WITH NO
SIGNIFICANT WEATHER AND/OR OBSTRUCTION TO VISIBILITY.

MIZ047>049-052>055-059>063-066>070-074>076-081>083-232300-
SOUTHEAST LOWER MICHIGAN

CITY           SKY/WX    TMP DP  RH WIND       PRES   REMARKS
ADRIAN         CLOUDY    43  43 100 NE8       29.66R
ALMA           LGT RAIN  39  38  99 N6        29.70R WCI  35
ANN ARBOR      CLOUDY    44  42  93 N7        29.66R
BAD AXE        CLOUDY    37  37 100 NE5       29.71R FOG     WCI  34
CARO           CLOUDY    39  38  99 CALM      29.69R FOG
DETROIT CITY   CLOUDY    42  41  96 NE8       29.67R FOG
DETROIT        CLOUDY    44  42  93 NE8       29.66S FOG
FLINT          CLOUDY    41  39  93 NE6       29.68R
GROSSE ILE     CLOUDY    43  41  95 N8        29.65R FOG
HILLSDALE      RAIN      41  39  93 N6        29.64S
HOWELL         CLOUDY    40  39  96 N3        29.67R FOG

CITY           SKY/WX    TMP DP  RH WIND       PRES   REMARKS
JACKSON        CLOUDY    41  39  93 N6        29.67R
LAMBERTVILLE   CLOUDY    45  42  91 NE3       29.65S FOG
LANSING        LGT RAIN  39  37  92 N6        29.70R FOG     WCI  35
LAPEER         CLOUDY    39  39  99 NE5       29.68S FOG
MASON          CLOUDY    39  39 100 N6        29.69R FOG     WCI  35
MONROE         CLOUDY    44  43  95 NE3       29.64S FOG
MT. CLEMENS    CLOUDY    41  41 100 NE7       29.65R FOG
PONTIAC        CLOUDY    41  38  89 N5        29.65R FOG
PORT HOPE        N/A     37  36  96 NE6       29.71R WCI  32
PORT HURON     CLOUDY    39  39 100 N7        29.68R FOG     WCI  34
TRI CITIES     FOG       37  37 100 N8        29.70S VSB 3/4 WCI  31
MIDLAND        CLOUDY    39  38  97 CALM      29.70S
TROY           CLOUDY    42  40  92 NE7       29.68R
SAGINAW HB     CLOUDY    37  36  93 N3        29.70R FOG
$$
MIZ043>046-050>051-056>058-064>065-071>073-077>080-232300-
SOUTHWEST LOWER MICHIGAN

CITY           SKY/WX    TMP DP  RH WIND       PRES   REMARKS
BATTLE CREEK   LGT RAIN  41  41 100 N9        29.68R FOG
BENTON HARBOR  CLOUDY    40  37  89 VRB7      29.72R
BIG RAPIDS     CLOUDY    39  38  97 CALM      29.70S FOG
COLDWATER      LGT RAIN  41  41 100 N5        29.67R
FREMONT        CLOUDY    42  37  85 NE5       29.71S
HOLLAND        CLOUDY    41  37  86 NW5       29.71S
GRAND RAPIDS   DRIZZLE   41  39  93 N8        29.70R FOG
IONIA          DRIZZLE   39  39  99 N5        29.69R
KALAMAZOO      FOG       41  38  89 NW9       29.69R VSB 1
LUDINGTON      FOG       38  38 100 N5        29.72S VSB 1   WCI  35
MARSHALL       LGT RAIN  40  40  98 CALM      29.68R
MOUNT PLEASANT LGT RAIN  38  37  99 CALM      29.71R VSB 1
MUSKEGON       CLOUDY    46  37  71 N7        29.71S
SOUTH HAVEN    CLOUDY    39  38  97 N8        29.71S WCI  34
$$
MIZ016>042-232300-
NORTHERN LOWER MICHIGAN

CITY           SKY/WX    TMP DP  RH WIND       PRES   REMARKS
ALPENA         LGT RAIN  37  36  96 E3        29.75S FOG
BEAVER ISLAND  FOG       34  34 100 NE7       29.75S VSB 3/4 WCI  28
BELLAIRE       FOG       38  37  99 CALM      29.74R VSB 3/4
CADILLAC       CLOUDY    39  38  96 CALM      29.70S FOG
CHARLEVOIX     CLOUDY    37  37 100 E3        29.77R FOG
FRANKFORT      FOG       39  39  99 CALM      29.73S VSB 1/4
GAYLORD        FOG       37  34  89 CALM      29.72R VSB 1/4
GRAYLING       FOG       37  36  99 NE5       29.73R VSB 1/2 WCI  33
HARBOR SPRINGS CLOUDY    36  35  99 NE5       29.74S FOG     WCI  32
HOUGHTON LAKE  FOG       37  36  96 N5        29.71S VSB 1/4 WCI  33
MANISTEE       CLOUDY    39  39 100 CALM      29.72S
OSCODA         CLOUDY    37  37  97 N5        29.72S FOG     WCI  34
PELLSTON       CLOUDY    36  34  92 NE6       29.75R FOG     WCI  31
ROGERS CITY    LGT SNOW  36  35  96 CALM      29.76S
TRAVERSE CITY  FOG       39  38  96 NE3       29.72R VSB 1
$$
MIZ007>008-015-232300-
EASTERN UPPER MICHIGAN

CITY           SKY/WX    TMP DP  RH WIND       PRES   REMARKS
KINROSS        CLOUDY    33  33 100 E8        29.78R WCI  26
MACKINAC ISLAN FOG       33  33 100 E7        29.77R VSB 3/4 WCI  27
NEWBERRY       CLOUDY    33  32  96 NE3       29.76S FOG
S. S. MARIE    LGT RAIN  36  34  92 E3        29.78R
MUNISING         N/A     35  35 100 CALM      29.76S
$$
MIZ004>006-011>014-085-232300-
CENTRAL UPPER MICHIGAN

CITY           SKY/WX    TMP DP  RH WIND       PRES   REMARKS
MANISTIQUE     FOG       34  33  97 NE6       29.75S VSB 1   WCI  29
ESCANABA       CLOUDY    37  36  96 NE3       29.76S FOG
SAWYER-GWINN   CLOUDY    34  34 100 E7        29.74S WCI  28
$$
MIZ001>003-009>011-084-232300-
WESTERN UPPER MICHIGAN

CITY           SKY/WX    TMP DP  RH WIND       PRES   REMARKS
IRON MOUNTAIN  CLOUDY    36  33  89 NW3       29.73R
HOUGHTON       CLOUDY    36  32  85 N7        29.74S WCI  30
COPPER HARBOR    N/A     35  34  96 N7        29.76S WCI  29
IRONWOOD       CLOUDY    35  34  96 W5        29.76R FOG     WCI  31
$$

ABBREVIATIONS USED IN REMARKS
   TC - TEMPERATURE IN CELSIUS
  WCI - WIND CHILL INDEX
   HX - HEAT INDEX
  VSB - VISIBILITY





USA.gov is the U.S. government's official web portal to all federal, state and local government web resources and services.